When you browse on this site, cookies collect data to enhance your experience and personalize the content and advertising you see.
Visit our Privacy Policy to learn more. By continuing to use the site, you agree to this use of cookies and data.
  • In Romania
  • List of Countries
  • For 7 days
  • Water Temperature
  • Satellite Maps
  • Weather Map
  • Weather Widgets
  • user-avatar
    Login

    Hourly Weather Fagernes

    Today, 20 May, Monday

    Time Temperature Precipitation Wind Pressure Humidity
    00:00 +9°C° 0 mm 1 mps 725 mmHg 94%
    01:00 +9°C° 0 mm 1 mps 725 mmHg 94%
    02:00 +9°C° 0 mm 1 mps 725 mmHg 94%
    03:00 +8°C° 0 mm 1 mps 725 mmHg 94%
    04:00 +8°C° 0 mm 1 mps 724 mmHg 94%
    05:00 +10°C° 0 mm 1 mps 724 mmHg 88%
    06:00 +12°C° 0 mm 1 mps 724 mmHg 82%
    07:00 +13°C° 0 mm 1 mps 724 mmHg 76%
    08:00 +15°C° 0 mm 1 mps 724 mmHg 72%
    09:00 +16°C° 0 mm 1 mps 724 mmHg 67%
    10:00 +18°C° 0 mm 1 mps 724 mmHg 62%
    11:00 +18°C° 0.4 mm 1 mps 724 mmHg 67%
    12:00 +16°C° 0.4 mm 1 mps 724 mmHg 71%
    13:00 +16°C° 0.4 mm 1 mps 724 mmHg 76%
    14:00 +16°C° 0.6 mm 1 mps 723 mmHg 77%
    15:00 +16°C° 0.6 mm 1 mps 723 mmHg 77%
    16:00 +16°C° 0.6 mm 1 mps 723 mmHg 78%
    17:00 +16°C° 0.1 mm 1 mps 723 mmHg 80%
    18:00 +15°C° 0.1 mm 1 mps 723 mmHg 81%
    19:00 +15°C° 0.1 mm 2 mps 723 mmHg 83%
    20:00 +15°C° 0.4 mm 2 mps 723 mmHg 86%
    21:00 +14°C° 0.4 mm 2 mps 723 mmHg 89%
    22:00 +13°C° 0.4 mm 2 mps 723 mmHg 92%
    23:00 +13°C° 0.4 mm 2 mps 723 mmHg 93%

    Tomorrow, 21 May, Tuesday

    Time Temperature Precipitation Wind Pressure Humidity
    00:00 +13°C° 0.4 mm 1 mps 723 mmHg 94%
    01:00 +13°C° 0.4 mm 1 mps 723 mmHg 94%
    02:00 +13°C° 0.1 mm 1 mps 723 mmHg 94%
    03:00 +13°C° 0.1 mm 1 mps 723 mmHg 95%
    04:00 +13°C° 0.1 mm 1 mps 723 mmHg 95%
    05:00 +13°C° 0.1 mm 1 mps 723 mmHg 94%
    06:00 +13°C° 0.1 mm 1 mps 723 mmHg 94%
    07:00 +14°C° 0.1 mm 1 mps 723 mmHg 93%
    08:00 +14°C° 0.1 mm 1 mps 723 mmHg 92%
    09:00 +15°C° 0.1 mm 1 mps 723 mmHg 92%
    10:00 +15°C° 0.1 mm 1 mps 723 mmHg 91%
    11:00 +18°C° 0.1 mm 1 mps 723 mmHg 84%
    12:00 +20°C° 0.1 mm 1 mps 723 mmHg 77%
    13:00 +22°C° 0.1 mm 1 mps 723 mmHg 69%
    14:00 +22°C° 0.4 mm 1 mps 723 mmHg 66%
    15:00 +23°C° 0.4 mm 1 mps 722 mmHg 63%
    16:00 +23°C° 0.4 mm 1 mps 722 mmHg 61%
    17:00 +22°C° 0.8 mm 1 mps 722 mmHg 66%
    18:00 +21°C° 0.8 mm 1 mps 722 mmHg 71%
    19:00 +21°C° 0.8 mm 1 mps 721 mmHg 76%
    20:00 +19°C° 0.5 mm 1 mps 721 mmHg 80%
    21:00 +18°C° 0.5 mm 1 mps 721 mmHg 85%
    22:00 +15°C° 0.5 mm 0 mps 721 mmHg 89%
    23:00 +15°C° 0.2 mm 1 mps 721 mmHg 91%

    Day after tomorrow, 22 May, Wednesday

    Time Temperature Precipitation Wind Pressure Humidity
    00:00 +15°C° 0.2 mm 1 mps 721 mmHg 92%
    01:00 +14°C° 0.2 mm 1 mps 721 mmHg 93%
    02:00 +14°C° 0.6 mm 1 mps 720 mmHg 94%
    03:00 +14°C° 0.6 mm 1 mps 720 mmHg 95%
    04:00 +14°C° 0.6 mm 1 mps 720 mmHg 96%
    05:00 +14°C° 1 mm 1 mps 720 mmHg 97%
    06:00 +15°C° 1 mm 1 mps 720 mmHg 97%
    07:00 +15°C° 1 mm 1 mps 719 mmHg 97%
    08:00 +15°C° 0.8 mm 2 mps 719 mmHg 97%
    09:00 +15°C° 0.8 mm 2 mps 719 mmHg 98%
    10:00 +15°C° 0.8 mm 2 mps 719 mmHg 98%
    11:00 +15°C° 0.7 mm 2 mps 719 mmHg 98%
    12:00 +14°C° 0.7 mm 3 mps 719 mmHg 97%
    13:00 +14°C° 0.7 mm 3 mps 719 mmHg 97%
    14:00 +16°C° 0.6 mm 3 mps 719 mmHg 97%
    15:00 +16°C° 0.6 mm 3 mps 719 mmHg 96%
    16:00 +16°C° 0.6 mm 3 mps 719 mmHg 96%
    17:00 +14°C° 0.7 mm 3 mps 719 mmHg 96%
    18:00 +15°C° 0.7 mm 2 mps 718 mmHg 97%
    19:00 +15°C° 0.7 mm 2 mps 718 mmHg 97%
    20:00 +14°C° 0.1 mm 2 mps 718 mmHg 97%
    21:00 +14°C° 0.1 mm 1 mps 718 mmHg 98%
    22:00 +13°C° 0.1 mm 1 mps 718 mmHg 98%
    23:00 +13°C° 0.1 mm 1 mps 718 mmHg 98%

    23 May, Thursday

    Time Temperature Precipitation Wind Pressure Humidity
    00:00 +13°C° 0.1 mm 1 mps 717 mmHg 98%
    01:00 +12°C° 0.1 mm 1 mps 717 mmHg 98%
    02:00 +12°C° 0.1 mm 1 mps 717 mmHg 97%
    03:00 +12°C° 0.1 mm 2 mps 717 mmHg 96%
    04:00 +10°C° 0.1 mm 2 mps 716 mmHg 95%
    05:00 +10°C° 0.2 mm 2 mps 716 mmHg 93%
    06:00 +10°C° 0.2 mm 2 mps 717 mmHg 91%
    07:00 +9°C° 0.2 mm 2 mps 717 mmHg 88%
    08:00 +9°C° 0.8 mm 2 mps 717 mmHg 89%
    09:00 +9°C° 0.8 mm 2 mps 717 mmHg 89%
    10:00 +9°C° 0.8 mm 2 mps 717 mmHg 89%
    11:00 +10°C° 0.7 mm 2 mps 717 mmHg 84%
    12:00 +12°C° 0.7 mm 2 mps 717 mmHg 79%
    13:00 +13°C° 0.7 mm 2 mps 717 mmHg 75%
    14:00 +13°C° 0.7 mm 2 mps 717 mmHg 74%
    15:00 +13°C° 0.7 mm 2 mps 717 mmHg 74%
    16:00 +13°C° 0.7 mm 2 mps 717 mmHg 73%
    17:00 +13°C° 0.1 mm 2 mps 717 mmHg 73%
    18:00 +12°C° 0.1 mm 2 mps 717 mmHg 72%
    19:00 +12°C° 0.1 mm 1 mps 717 mmHg 72%
    20:00 +11°C° 0 mm 1 mps 717 mmHg 76%
    21:00 +9°C° 0 mm 1 mps 717 mmHg 81%
    22:00 +8°C° 0 mm 1 mps 717 mmHg 85%
    23:00 +7°C° 0 mm 1 mps 717 mmHg 87%

    24 May, Friday

    Time Temperature Precipitation Wind Pressure Humidity
    00:00 +7°C° 0 mm 1 mps 717 mmHg 89%
    01:00 +6°C° 0 mm 1 mps 717 mmHg 90%
    02:00 +5°C° 0 mm 0 mps 717 mmHg 91%
    03:00 +5°C° 0 mm 0 mps 716 mmHg 92%
    04:00 +4°C° 0 mm 0 mps 716 mmHg 93%
    05:00 +6°C° 0 mm 0 mps 716 mmHg 88%
    06:00 +7°C° 0 mm 0 mps 716 mmHg 84%
    07:00 +9°C° 0 mm 0 mps 716 mmHg 79%
    08:00 +10°C° 0.3 mm 1 mps 717 mmHg 79%
    09:00 +10°C° 0.3 mm 1 mps 717 mmHg 79%
    10:00 +10°C° 0.3 mm 1 mps 717 mmHg 79%
    11:00 +11°C° 0.7 mm 1 mps 717 mmHg 80%
    12:00 +11°C° 0.7 mm 1 mps 717 mmHg 80%
    13:00 +11°C° 0.7 mm 1 mps 717 mmHg 81%
    14:00 +11°C° 0.4 mm 1 mps 717 mmHg 79%
    15:00 +12°C° 0.4 mm 1 mps 717 mmHg 77%
    16:00 +12°C° 0.4 mm 1 mps 717 mmHg 75%
    17:00 +12°C° 0.2 mm 1 mps 717 mmHg 76%
    18:00 +12°C° 0.2 mm 1 mps 717 mmHg 78%
    19:00 +11°C° 0.2 mm 1 mps 717 mmHg 79%
    20:00 +10°C° 0 mm 1 mps 717 mmHg 85%
    21:00 +9°C° 0 mm 1 mps 717 mmHg 90%
    22:00 +8°C° 0 mm 1 mps 718 mmHg 95%
    23:00 +7°C° 0.1 mm 1 mps 718 mmHg 96%

    25 May, Saturday

    Time Temperature Precipitation Wind Pressure Humidity
    00:00 +6°C° 0.1 mm 0 mps 718 mmHg 96%
    01:00 +6°C° 0.1 mm 0 mps 718 mmHg 97%
    02:00 +6°C° 0.1 mm 0 mps 719 mmHg 97%
    03:00 +6°C° 0.1 mm 0 mps 719 mmHg 97%
    04:00 +8°C° 0.1 mm 1 mps 719 mmHg 97%
    05:00 +8°C° 0.1 mm 1 mps 719 mmHg 94%
    06:00 +9°C° 0.1 mm 1 mps 719 mmHg 92%
    07:00 +10°C° 0.1 mm 1 mps 719 mmHg 89%
    08:00 +11°C° 0.2 mm 1 mps 720 mmHg 86%
    09:00 +11°C° 0.2 mm 1 mps 720 mmHg 83%
    10:00 +12°C° 0.2 mm 1 mps 720 mmHg 81%
    11:00 +13°C° 0.3 mm 1 mps 720 mmHg 77%
    12:00 +13°C° 0.3 mm 2 mps 719 mmHg 73%
    13:00 +14°C° 0.3 mm 2 mps 719 mmHg 70%
    14:00 +14°C° 0.3 mm 2 mps 719 mmHg 70%
    15:00 +14°C° 0.3 mm 2 mps 719 mmHg 71%
    16:00 +14°C° 0.3 mm 2 mps 719 mmHg 71%
    17:00 +14°C° 0.5 mm 2 mps 719 mmHg 76%
    18:00 +13°C° 0.5 mm 1 mps 719 mmHg 81%
    19:00 +12°C° 0.5 mm 1 mps 719 mmHg 86%
    20:00 +12°C° 0.8 mm 1 mps 719 mmHg 89%
    21:00 +11°C° 0.8 mm 1 mps 719 mmHg 93%
    22:00 +10°C° 0.8 mm 1 mps 719 mmHg 97%
    23:00 +10°C° 0.4 mm 1 mps 719 mmHg 97%
    Show more